STARLINK-32799, 62847

Orbit data source: Space-Track

STARLINK-32799, 62847 is a payload satellite owned by SpaceX/Seattle (US) in LEO that was launched on Mon, 27 Jan 2025 UTC via an FALCON 9 launch vehicle from the Air Force Eastern Test Range (AFETR). Payload-class satellites include a variety of spacecraft equipped with specific instruments for various scientific and technological missions. These include communications satellites like Starlink; space stations such as the ISS; scientific satellites like the Hubble; Earth observation satellites from companies like Planet Labs, Umbra, and HawkEye 360; GPS; miniature CubeSats for education and research; and military/defense satellites.

Loading next visibility...
Identifier
62847, 2025-019U
Orbit
LEO
Country
Flag of USUS
Related business
Manufacturer
SpaceX/Seattle
Mission
Operational Commercial Communications
Bus & Motor
STARLINK V2M, Unknown motor
Mass
730 kg wet, ~700 kg dry
Launch date (UTC)
2025-01-27 (1 year ago)
Launch vehicle
FALCON 9
Launch site
Air Force Eastern Test Range (AFETR)
Object type
Payload
Rocket body
Debris
Shape & HBR
Box + 2 Pan, 17.7 m
Radar Cross Section
33.884 m², Large (>1 m²)

Expand to show TLE details & history
Last TLE update: 19 hours ago

TLE from 19 hours ago
0 STARLINK-32799
1 62847U 25019U   26036.00143376  .00026480  00000-0  96798-3 0  9997
2 62847  42.9988 273.4136 0001323 251.1506 108.9202 15.27592386 57253
Epoch: 2026-02-05T00:02Z
TLE epoch observation values (Epoch: 2026-02-05T00:02:03.876Z)
Latitude
-0.00005°
Longitude
137.73747°
Altitude
483.082 km
Speed
7.626 km/s
True Right ascension
18h 13m 39s
True Declination
0° 00' 00"
Sunlit
Object was in daylight at epoch
Visualization orbit readout
Latitude
Unknown
Longitude
Unknown
Altitude
Unknown
Speed
Unknown
Apparent Right ascension
Unknown
Apparent Declination
Unknown
Sunlit
N/A
Visualization observer readout
Local Sidereal Time
20:51:45
Azimuth
Unknown
Elevation
Unknown
Doppler factor
Unknown
Orbital elements
Apogee altitude
485.865 km
Perigee altitude
484.049 km
Semi-major axis
6,863.094 km
Eccentricity
0.00013
Inclination
42.9988°
RAAN
273.4136°
Arg. of periapsis
251.1506°
True anomaly
108.93454°
Mean anomaly
108.9202°
Eccentric anomaly
108.92737°
Mean motion
3.81736 °/min
Orbital period
94.31 mins
BSTAR
0.00096798
Loading maneuver chart data...
Computing Atmospheric mass density...
Loading historical data...
Loading historical data...
Loading historical data...
Loading historical data...
Loading historical data...
Loading historical data...
Loading historical data...

Documentation

Showing up to 5 results
|